Temp
60 60 60 60 60 60 61 61 61 61 61 61 61 61 61 62 61 57 50 57 60 66 63 57 57 56 55 53 60 62 49 45 49 52 53 58 59 62 62 62 58 60 60 62 64
59 59 59 60 60 60 60 60 61 61 61 61 61 61 61 61 52 51 62 66 66 65 54 50 50 52 47 49 54 53 47 49 54 55 56 60 59 61 57 56 55 56 60 64 64
59 59 59 59 59 59 60 60 60 60 60 60 61 61 61 58 47 51 65 66 65 62 55 52 52 50 44 47 48 51 46 54 58 60 61 61 62 61 62 54 59 59 58 60 61
58 58 58 58 59 59 59 60 60 60 60 60 60 60 60 52 37 55 65 65 65 59 54 51 51 46 42 41 48 43 53 55 58 58 58 58 62 57 62 63 66 62 63 62 61
58 58 58 58 58 59 59 60 60 60 60 60 60 61 53 43 46 60 63 61 58 55 51 48 46 47 42 44 46 43 47 54 56 58 56 56 57 61 58 61 61 63 63 61 62
58 57 57 57 57 58 59 59 60 60 60 60 61 60 47 40 57 60 58 58 55 53 51 49 47 49 45 43 43 47 48 51 52 53 56 54 55 57 60 57 59 61 60 61 62
57 57 57 57 57 58 58 59 59 60 60 60 61 56 46 45 56 56 57 56 56 53 50 51 52 46 48 43 49 48 42 47 50 51 52 56 53 53 56 57 57 58 59 60 62
57 56 56 57 57 57 58 59 59 59 60 61 61 51 43 57 55 57 57 55 55 55 52 53 54 48 46 47 45 41 42 38 50 50 53 54 46 55 58 54 56 56 55 57 59
56 56 56 57 57 57 58 59 59 60 61 61 50 46 42 59 52 56 54 52 54 54 53 55 51 46 46 38 35 40 35 38 45 52 51 50 45 53 58 54 53 54 55 56 57
56 56 56 56 57 57 58 58 59 58 57 57 54 42 49 46 51 54 55 54 50 50 48 49 45 38 40 37 28 33 34 40 41 46 48 45 45 52 54 53 53 53 55 56 56
56 56 56 56 57 58 52 47 43 44 46 42 43 43 48 53 54 51 54 51 50 46 38 44 38 33 39 40 38 40 40 39 41 45 46 45 46 48 50 54 53 55 53 56 57
56 56 56 56 57 57 48 41 41 44 37 47 47 47 51 51 44 50 54 46 43 37 41 37 35 41 43 43 39 38 39 37 42 47 46 45 45 46 46 48 51 51 50 52 53
55 55 55 56 56 49 44 42 48 50 36 43 48 47 48 49 43 45 49 45 39 38 37 33 39 45 41 40 37 34 35 37 38 43 44 43 38 40 44 47 54 53 51 50 50
55 55 55 56 49 44 41 47 48 50 26 36 41 46 49 47 41 52 50 44 41 37 37 35 42 41 41 37 40 34 42 42 39 38 32 39 30 33 38 42 50 51 51 49 49
55 55 55 55 42 41 44 47 47 44 16 39 42 53 50 42 44 45 50 45 37 38 37 35 37 36 38 37 42 37 42 41 41 35 35 34 32 33 38 38 44 49 50 50 50
55 55 54 48 44 44 47 45 44 24 17 33 41 39 39 41 43 45 44 47 45 39 38 36 43 39 38 44 43 45 42 41 37 34 27 32 32 31 34 38 41 47 50 49 49
55 54 51 49 42 47 45 40 22 17 32 29 32 37 35 34 39 40 39 36 34 25 29 35 36 41 42 40 44 41 33 26 22 19 22 33 32 32 37 42 44 46 48 48 48
54 53 50 49 47 46 41 28 15 20 24 37 35 36 32 35 34 36 37 32 37 36 29 28 25 37 42 37 35 36 35 25 17 20 25 33 28 34 42 45 47 48 48 49 49
53 44 44 46 48 45 35 18 19 24 34 33 35 28 23 35 32 32 34 34 37 39 29 30 28 39 40 40 39 35 31 37 29 22 24 28 33 41 44 46 45 45 48 47 48
41 40 41 47 46 41 28 27 25 34 36 34 29 31 23 25 29 30 28 32 35 40 41 35 28 35 39 41 40 37 40 29 28 17 17 26 29 30 38 41 44 44 44 45 48
39 32 41 46 43 33 22 23 30 38 38 33 29 30 31 30 26 29 30 35 35 39 41 37 35 32 36 32 30 33 32 33 32 29 23 21 27 38 39 42 42 43 45 45 45
35 22 41 43 26 20 21 27 35 35 38 36 35 32 31 32 29 27 29 33 42 40 34 38 33 23 27 36 37 35 31 33 26 25 28 28 27 43 41 42 44 43 45 45 46
30 31 42 41 19 21 21 24 31 33 34 34 33 35 35 32 26 32 33 37 38 39 36 38 28 14 23 31 35 32 34 33 32 31 26 23 26 41 41 41 43 42 42 43 44
30 27 33 36 29 27 21 20 25 34 34 36 35 36 33 31 33 31 32 35 37 37 43 41 31 24 19 25 29 28 32 33 32 23 27 28 27 33 38 39 40 41 42 42 43
30 27 31 26 29 25 29 28 27 26 32 34 33 33 33 28 31 31 32 33 36 40 36 34 19 24 28 30 31 30 31 31 30 30 25 27 30 36 36 36 36 40 41 42 42
30 30 31 25 30 29 31 26 29 30 30 29 28 33 33 31 32 30 33 32 31 33 31 32 20 22 18 29 27 25 30 29 31 31 29 29 29 37 36 36 36 39 39 40 41
36 37 35 32 27 25 25 30 30 32 33 34 33 32 32 34 35 35 36 35 34 32 30 27 18 13 11 21 19 15 25 29 29 29 31 27 33 35 36 39 37 37 39 38 39
MSLP
1023.13 1022.99 1022.78 1022.60 1022.37 1022.10 1021.76 1021.47 1021.12 1020.87 1020.54 1020.18 1019.91 1019.58 1019.30 1019.04 1018.61 1018.11 1017.90 1017.66 1017.47 1016.94 1016.82 1016.78 1016.42 1016.31 1016.10 1015.78 1015.18 1014.58 1014.18 1012.52 1011.18 1010.98 1009.72 1009.33 1009.42 1009.00 1008.79 1009.26 1009.85 1009.89 1010.16 1010.39 1011.44
1023.19 1022.97 1022.81 1022.63 1022.36 1022.12 1021.81 1021.46 1021.17 1020.97 1020.59 1020.18 1019.83 1019.49 1019.13 1018.79 1018.72 1018.23 1017.69 1017.36 1017.15 1017.04 1017.06 1017.07 1017.00 1016.79 1016.53 1016.00 1015.08 1014.44 1013.39 1011.39 1010.94 1010.46 1009.65 1009.35 1009.10 1009.20 1009.46 1009.64 1010.18 1010.24 1010.41 1010.65 1011.48
1023.13 1023.04 1022.81 1022.61 1022.42 1022.16 1021.83 1021.45 1021.11 1020.89 1020.57 1020.15 1019.88 1019.44 1019.00 1018.90 1018.89 1017.83 1017.41 1017.31 1017.27 1017.25 1017.40 1017.46 1017.43 1017.43 1017.02 1016.25 1015.33 1014.12 1012.93 1012.13 1011.35 1010.68 1010.11 1009.55 1009.15 1009.09 1009.32 1010.09 1009.24 1009.48 1010.52 1010.91 1011.60
1023.16 1022.97 1022.83 1022.58 1022.35 1022.02 1021.72 1021.30 1020.91 1020.56 1020.21 1019.96 1019.61 1019.28 1018.88 1018.92 1018.70 1017.56 1017.38 1017.24 1017.17 1017.35 1017.56 1017.56 1017.55 1017.66 1017.40 1016.59 1015.53 1014.86 1013.19 1012.98 1012.08 1011.34 1010.58 1009.84 1009.24 1009.09 1009.09 1008.75 1008.25 1008.99 1009.17 1010.43 1011.40
1023.05 1023.03 1022.80 1022.58 1022.32 1021.91 1021.55 1021.21 1020.74 1020.33 1019.99 1019.62 1019.30 1019.14 1019.08 1018.89 1018.12 1017.32 1017.12 1017.16 1017.13 1017.29 1017.54 1017.74 1017.76 1017.82 1017.41 1016.59 1015.94 1014.91 1013.81 1013.15 1012.63 1011.70 1011.38 1010.27 1009.96 1009.29 1009.01 1008.87 1008.64 1009.28 1010.28 1010.49 1011.05
1022.90 1022.75 1022.54 1022.35 1022.07 1021.73 1021.29 1020.86 1020.53 1020.11 1019.74 1019.45 1019.20 1019.11 1019.31 1018.83 1017.39 1017.30 1017.37 1017.09 1017.10 1017.40 1017.45 1017.59 1017.87 1017.76 1017.10 1016.64 1016.16 1014.59 1014.02 1013.66 1012.63 1012.18 1012.12 1010.82 1010.36 1009.96 1009.04 1009.30 1009.54 1009.46 1010.10 1010.73 1011.13
1022.76 1022.54 1022.40 1022.05 1021.71 1021.33 1020.83 1020.46 1019.96 1019.66 1019.48 1019.28 1019.13 1019.27 1019.29 1018.32 1017.45 1017.43 1017.21 1017.00 1016.80 1017.08 1017.36 1017.18 1017.15 1017.59 1016.81 1016.27 1015.48 1014.99 1014.70 1013.44 1012.95 1013.38 1012.51 1011.17 1010.41 1010.27 1009.94 1009.76 1009.88 1010.15 1010.50 1010.92 1011.25
1022.59 1022.44 1022.17 1021.85 1021.46 1020.96 1020.53 1019.97 1019.48 1019.12 1019.02 1019.12 1019.10 1019.29 1018.76 1017.38 1017.38 1017.36 1017.03 1016.94 1016.83 1016.88 1016.98 1016.94 1016.72 1016.72 1016.71 1016.51 1015.65 1015.04 1014.69 1013.30 1011.77 1013.09 1012.40 1011.74 1011.31 1011.08 1010.69 1010.91 1010.24 1010.53 1010.81 1011.30 1011.37
1022.46 1022.37 1022.08 1021.77 1021.31 1020.71 1020.08 1019.47 1018.98 1018.70 1018.64 1018.75 1019.22 1019.30 1018.42 1017.22 1017.40 1017.16 1017.15 1017.14 1016.95 1016.63 1016.63 1016.64 1016.40 1016.22 1016.09 1016.14 1016.09 1014.48 1013.68 1013.05 1012.22 1012.36 1012.18 1012.20 1012.01 1011.71 1010.77 1011.21 1010.98 1010.97 1011.08 1011.30 1011.68
1022.37 1022.28 1021.94 1021.62 1021.20 1020.40 1019.73 1019.08 1018.67 1018.52 1018.75 1018.86 1019.16 1019.56 1018.45 1018.12 1017.50 1017.12 1016.78 1016.92 1017.09 1016.57 1016.38 1016.24 1016.29 1016.17 1015.85 1015.66 1014.89 1013.97 1013.64 1012.79 1012.09 1012.48 1012.47 1012.43 1012.43 1012.27 1011.76 1011.68 1011.45 1011.26 1011.57 1011.69 1011.73
1022.27 1022.14 1021.97 1021.57 1021.17 1020.43 1019.84 1019.46 1019.72 1019.54 1019.37 1019.48 1019.36 1019.09 1018.47 1017.99 1017.55 1017.17 1016.75 1016.73 1016.76 1017.00 1016.68 1016.37 1016.26 1016.08 1015.14 1015.13 1014.93 1014.05 1012.80 1012.30 1012.56 1012.45 1012.09 1012.62 1013.17 1013.69 1013.17 1012.32 1011.80 1011.99 1012.15 1011.93 1012.11
1022.18 1022.11 1021.88 1021.53 1021.29 1020.66 1020.41 1021.12 1021.36 1021.58 1020.50 1019.59 1019.34 1018.97 1018.42 1018.14 1018.06 1017.17 1016.85 1017.07 1017.20 1017.24 1016.65 1016.68 1016.21 1015.91 1015.30 1015.14 1014.94 1014.14 1012.36 1012.89 1013.09 1012.82 1012.76 1013.51 1013.66 1014.70 1014.42 1014.56 1013.35 1012.93 1013.37 1012.97 1012.88
1022.20 1021.92 1021.86 1021.49 1021.24 1021.33 1021.58 1021.94 1021.78 1021.40 1020.98 1019.60 1018.87 1018.59 1018.38 1018.45 1018.05 1017.52 1017.18 1017.33 1017.45 1017.40 1017.19 1017.10 1016.61 1015.98 1015.62 1015.32 1014.98 1014.20 1013.55 1013.33 1013.38 1013.44 1013.84 1014.42 1015.80 1015.72 1015.56 1014.85 1014.11 1014.39 1014.89 1013.99 1013.88
1022.05 1022.05 1021.87 1021.56 1021.69 1021.86 1022.08 1021.99 1021.89 1021.60 1021.33 1019.88 1018.75 1018.15 1018.08 1018.18 1018.13 1017.41 1017.24 1017.67 1017.53 1017.59 1017.33 1017.12 1016.58 1015.98 1015.76 1015.59 1015.42 1014.88 1014.48 1013.83 1014.16 1014.31 1015.30 1015.99 1016.89 1017.29 1017.12 1016.31 1015.80 1015.09 1014.99 1014.66 1014.52
1022.03 1022.07 1021.90 1021.68 1022.13 1022.10 1022.42 1021.90 1021.53 1021.72 1021.66 1020.31 1018.83 1017.89 1018.14 1018.56 1018.42 1017.57 1017.27 1017.30 1017.83 1017.83 1017.87 1017.44 1016.86 1016.22 1016.09 1016.32 1015.83 1015.83 1014.99 1014.62 1015.00 1015.39 1016.19 1017.07 1017.55 1018.19 1017.73 1017.93 1016.96 1016.13 1015.96 1015.62 1015.20
1022.03 1022.01 1022.14 1022.15 1022.20 1022.45 1022.12 1021.91 1022.08 1022.51 1021.70 1020.34 1019.21 1018.61 1018.86 1018.85 1018.76 1018.24 1017.84 1017.64 1017.78 1018.03 1017.63 1017.52 1016.87 1016.41 1016.30 1016.18 1016.15 1015.73 1015.25 1015.11 1015.67 1016.05 1017.28 1018.11 1018.09 1018.89 1018.46 1018.76 1017.97 1017.14 1016.25 1016.05 1015.89
1021.57 1021.83 1021.91 1022.24 1022.50 1022.16 1022.33 1022.44 1023.59 1022.87 1022.33 1021.13 1020.25 1019.78 1019.87 1019.83 1019.46 1019.35 1018.97 1018.99 1019.35 1019.07 1018.52 1017.87 1017.38 1016.68 1016.10 1016.03 1016.16 1016.43 1016.52 1016.75 1017.13 1017.75 1018.60 1018.53 1018.53 1019.17 1019.13 1018.62 1018.02 1017.63 1017.04 1016.47 1016.52
1021.55 1021.84 1021.81 1021.66 1021.64 1022.15 1022.44 1023.53 1024.52 1023.47 1022.49 1021.42 1020.89 1020.46 1020.60 1020.58 1020.55 1020.41 1020.21 1020.18 1020.11 1020.11 1019.86 1019.22 1018.03 1017.30 1016.74 1016.68 1016.72 1016.74 1017.30 1018.16 1018.54 1018.66 1018.92 1018.87 1019.11 1018.65 1018.12 1018.29 1017.83 1017.34 1017.26 1016.86 1016.71
1021.68 1022.30 1022.63 1022.26 1021.95 1022.02 1023.01 1023.79 1023.60 1023.26 1022.61 1021.90 1021.48 1021.36 1021.22 1020.87 1021.10 1021.06 1021.15 1021.21 1021.06 1020.87 1020.74 1019.90 1018.81 1017.69 1017.32 1017.02 1017.12 1017.12 1017.66 1017.99 1018.68 1019.65 1019.34 1019.50 1018.81 1018.25 1018.43 1018.16 1017.78 1017.54 1017.24 1017.20 1017.28
1021.81 1022.44 1022.57 1022.17 1022.05 1022.36 1023.19 1023.86 1023.34 1022.67 1022.22 1021.77 1021.75 1021.94 1021.94 1021.83 1021.59 1021.44 1021.72 1021.55 1021.38 1021.33 1020.96 1020.67 1019.92 1018.60 1017.87 1017.48 1017.34 1017.19 1017.60 1018.26 1019.06 1020.11 1020.33 1020.31 1019.49 1019.05 1018.68 1018.27 1018.14 1018.09 1017.95 1017.90 1017.81
1022.04 1022.53 1022.05 1022.16 1022.44 1023.25 1024.01 1023.88 1023.11 1022.48 1021.96 1021.90 1021.71 1021.97 1021.90 1022.12 1022.08 1022.00 1022.07 1021.78 1021.46 1021.29 1021.12 1020.99 1020.70 1019.73 1018.81 1019.15 1018.91 1018.24 1017.98 1018.58 1019.32 1020.25 1020.52 1020.66 1020.36 1019.19 1018.92 1018.85 1018.92 1018.88 1018.73 1018.61 1018.50
1021.87 1023.04 1022.00 1022.34 1023.46 1023.96 1024.34 1023.83 1023.50 1022.75 1022.06 1021.84 1021.73 1021.64 1021.58 1021.74 1021.92 1022.05 1021.88 1021.64 1021.45 1021.56 1021.45 1021.72 1021.51 1021.14 1020.37 1019.73 1019.50 1019.27 1019.21 1019.21 1019.65 1020.54 1020.53 1020.38 1020.66 1019.46 1019.32 1019.28 1019.34 1019.40 1019.35 1019.29 1019.12
1021.94 1022.52 1022.43 1022.68 1023.39 1024.31 1024.14 1023.85 1023.75 1023.10 1022.46 1022.00 1021.75 1021.51 1021.48 1021.51 1021.75 1021.75 1021.57 1021.60 1021.61 1021.78 1021.89 1021.92 1022.34 1022.36 1021.53 1020.80 1020.18 1020.27 1020.02 1019.80 1019.95 1020.51 1021.13 1020.90 1021.06 1020.18 1019.99 1019.84 1019.85 1019.97 1020.06 1020.05 1019.91
1021.91 1022.61 1022.82 1022.98 1023.08 1023.20 1023.97 1023.72 1023.52 1023.14 1022.98 1022.34 1021.80 1021.53 1021.58 1021.47 1021.32 1021.63 1021.82 1021.76 1021.79 1022.00 1022.22 1022.52 1023.28 1023.68 1023.47 1022.84 1022.38 1021.68 1021.25 1020.85 1020.73 1021.19 1021.28 1021.15 1020.80 1020.62 1020.38 1020.39 1020.47 1020.54 1020.55 1020.67 1020.73
1020.94 1021.65 1021.10 1022.55 1022.92 1023.25 1022.78 1022.86 1022.59 1023.00 1023.28 1022.95 1022.42 1021.85 1021.77 1021.78 1021.36 1021.44 1021.73 1022.00 1022.05 1022.30 1022.80 1023.68 1024.75 1024.97 1024.73 1024.20 1023.35 1022.65 1022.15 1021.70 1021.46 1021.46 1021.41 1021.25 1020.78 1020.72 1020.70 1020.77 1020.86 1020.78 1021.05 1021.19 1021.31
1019.50 1020.82 1021.14 1021.52 1021.54 1022.36 1022.87 1022.24 1021.70 1022.30 1022.66 1022.74 1022.80 1022.02 1021.97 1021.71 1021.40 1021.32 1021.64 1022.20 1022.29 1022.83 1023.49 1024.51 1025.80 1026.43 1026.44 1025.60 1024.79 1023.83 1022.77 1022.23 1021.82 1021.50 1021.32 1021.23 1021.03 1020.64 1020.53 1020.66 1021.07 1021.41 1021.77 1021.86 1021.85
1017.97 1018.91 1018.92 1020.65 1021.72 1022.33 1021.92 1021.28 1020.60 1021.12 1021.90 1021.85 1022.15 1022.27 1022.40 1022.16 1021.95 1021.85 1022.20 1022.81 1023.06 1023.64 1024.39 1025.50 1026.70 1027.97 1028.18 1027.12 1025.86 1024.63 1022.94 1022.35 1021.86 1021.46 1021.24 1021.18 1020.69 1020.60 1020.73 1020.89 1021.23 1021.71 1021.86 1022.04 1022.13
Wind_Speed
8 9 9 11 11 12 13 14 14 15 16 16 16 16 16 16 17 3 3 5 5 13 11 7 5 6 3 3 4 3 5 15 21 18 8 4 5 3 1 7 2 4 7 4 18
8 8 9 11 12 13 13 14 15 15 16 16 17 17 16 16 3 4 3 7 8 10 5 6 7 8 3 3 5 6 9 16 4 6 7 3 2 1 1 3 2 2 2 16 20
8 9 10 11 12 13 14 14 15 16 16 16 17 16 16 11 2 3 2 7 6 8 2 2 4 4 3 3 4 5 13 8 9 8 7 3 4 3 4 5 8 12 13 18 19
8 9 10 11 13 14 15 15 16 16 16 17 16 14 14 1 2 2 4 9 6 3 2 3 2 5 3 5 4 6 9 13 13 6 5 4 2 3 8 10 6 6 23 20 19
7 9 10 12 14 15 16 17 17 17 16 15 13 10 5 3 5 2 10 8 3 1 1 1 3 4 10 6 4 8 5 7 12 8 9 3 7 6 7 5 6 15 15 19 18
8 9 10 12 14 16 17 17 18 17 16 13 10 5 0 3 2 4 7 5 2 3 3 3 3 7 9 8 10 4 7 8 9 14 10 1 5 4 7 5 8 17 17 14 17
8 9 10 12 14 16 18 18 18 17 15 11 7 1 2 8 1 6 5 3 3 5 2 4 5 5 4 6 11 9 8 6 10 10 8 6 4 5 6 5 11 11 10 10 11
7 9 10 12 15 17 19 19 20 16 11 6 2 0 5 4 4 6 4 5 3 4 4 6 5 9 5 6 7 7 4 11 12 11 6 3 7 2 8 3 12 10 7 7 7
6 9 11 13 15 17 19 20 16 6 5 3 2 2 7 5 4 6 2 4 4 5 5 5 2 3 6 7 5 9 9 12 11 19 7 6 4 9 13 6 5 6 8 7 5
6 8 11 14 16 18 19 14 6 4 4 2 0 2 3 6 5 6 4 4 7 4 4 1 1 3 4 5 6 3 9 15 11 6 6 5 8 15 18 11 7 5 5 5 6
6 8 11 13 16 18 9 4 6 4 6 1 3 3 3 7 3 4 4 5 2 2 3 0 3 7 7 4 6 6 13 8 5 3 2 8 13 7 14 13 5 4 5 5 4
5 8 11 12 14 15 3 5 2 1 4 3 5 4 5 1 5 7 5 6 4 4 8 4 9 12 13 6 2 9 11 6 8 7 4 7 6 4 9 8 9 11 8 5 4
5 6 10 11 12 4 4 2 4 2 0 5 3 3 5 1 3 6 5 4 2 5 5 3 4 6 9 5 3 5 5 3 5 6 13 7 4 7 7 11 9 9 5 7 7
5 6 8 12 3 2 2 4 4 2 5 4 2 2 3 1 3 4 1 1 4 4 4 2 5 5 7 4 9 5 11 4 9 3 4 5 3 3 7 16 10 11 11 9 8
4 5 6 4 1 2 2 4 3 2 5 4 5 2 6 1 4 3 2 3 3 5 3 4 4 6 5 6 6 3 8 5 2 7 5 6 5 3 3 7 12 12 9 8 8
4 3 3 2 2 1 3 2 3 8 6 1 3 4 4 4 4 5 5 4 2 4 3 3 3 2 0 2 4 7 5 5 3 2 5 2 3 2 1 1 9 11 8 8 8
4 3 1 2 1 2 2 4 7 5 4 4 1 4 2 4 5 5 5 6 5 6 6 6 5 5 4 4 2 7 7 4 5 6 2 2 3 0 2 5 6 7 8 8 6
5 3 1 2 2 0 3 7 3 2 5 2 1 1 2 5 4 7 3 4 5 5 2 4 7 7 6 3 1 2 4 3 2 1 2 4 3 2 6 6 5 7 5 7 7
7 1 2 2 2 2 5 4 8 6 2 3 2 4 5 2 0 5 5 4 4 7 4 5 3 5 3 1 1 4 3 3 4 2 4 3 2 3 5 3 4 6 7 9 7
4 2 2 2 2 3 5 5 3 3 2 1 4 3 3 3 1 3 1 2 3 1 1 3 4 2 4 3 3 1 2 4 4 3 3 4 3 2 1 4 5 6 7 7 7
4 3 2 2 2 5 4 6 4 4 2 2 4 2 2 2 3 2 1 1 1 4 2 3 1 6 3 5 3 6 4 4 4 3 2 3 2 3 2 4 5 6 6 6 7
4 1 2 2 4 1 4 4 2 3 1 1 3 3 5 4 3 2 4 2 3 2 1 2 2 2 2 5 3 2 1 2 4 4 2 3 0 4 4 3 4 6 7 7 7
4 3 1 3 4 3 1 0 1 3 3 4 4 4 4 5 3 2 4 2 2 0 2 1 1 4 9 6 5 5 4 3 4 3 2 3 4 2 6 6 6 6 7 7 8
4 4 2 1 1 5 5 3 3 1 3 2 3 2 3 3 2 4 2 1 2 2 1 4 1 4 5 3 2 2 4 4 2 4 3 1 3 3 6 5 4 4 5 6 6
3 6 4 7 6 3 5 6 7 4 1 3 2 4 5 3 3 5 3 2 2 2 3 3 2 1 1 4 2 1 1 3 3 0 4 2 2 5 2 2 2 3 5 7 8
8 6 2 2 7 9 9 8 8 5 7 4 3 7 4 4 5 7 6 3 3 2 3 2 2 2 3 5 5 2 3 1 2 2 2 0 2 5 3 3 4 5 5 6 6
3 1 4 8 4 5 6 8 11 11 5 2 6 4 3 4 3 4 5 5 4 4 2 3 4 4 5 5 6 6 4 5 2 2 4 4 6 1 3 5 4 6 5 4 4
Wind_Direction
3 4 355 352 348 345 342 340 339 337 334 332 331 328 328 329 327 304 317 243 293 317 335 312 337 334 314 255 223 284 239 227 220 204 211 180 190 277 32 132 319 146 154 187 134
0 358 352 347 341 337 336 336 333 332 328 328 325 325 324 329 299 287 248 345 322 333 353 358 331 341 320 261 248 191 232 241 254 244 215 201 180 222 202 152 249 102 51 131 141
352 345 344 340 335 333 331 330 328 328 326 325 324 321 318 334 309 206 296 340 336 357 340 333 332 319 273 248 233 229 239 279 284 250 245 243 255 200 162 259 211 187 156 149 153
341 340 338 335 331 329 327 326 326 326 325 323 322 322 320 327 322 177 341 330 323 357 31 325 327 307 278 243 229 276 241 262 281 319 275 223 286 215 186 224 224 176 162 153 165
328 333 335 333 329 327 326 326 324 323 321 320 320 328 354 3 259 267 330 326 306 124 194 349 282 247 256 274 268 239 238 257 282 298 290 287 262 232 233 284 125 131 161 169 174
321 327 331 330 325 325 323 321 320 318 317 315 320 328 12 287 245 323 326 314 192 173 207 157 269 288 263 259 240 309 226 245 264 304 312 300 236 333 253 158 142 154 171 178 178
312 321 325 327 324 322 320 318 315 312 308 306 323 76 314 241 321 317 299 267 210 174 246 210 195 213 314 259 240 237 291 247 215 257 258 300 306 240 299 153 157 167 174 178 180
310 316 323 322 323 323 320 317 313 306 295 291 324 182 259 262 309 313 302 308 177 192 200 246 221 241 235 345 302 197 220 244 217 232 259 261 214 348 354 250 171 169 158 180 181
301 313 321 322 323 323 320 316 313 303 272 245 85 102 280 319 340 299 255 272 257 233 246 262 236 230 190 195 273 202 215 227 196 189 231 231 125 295 17 247 175 181 173 180 186
295 312 319 323 324 325 321 316 316 36 10 106 255 34 325 303 289 297 270 260 268 295 300 117 318 338 274 204 224 213 223 212 174 147 191 173 123 293 359 321 238 166 185 191 203
291 313 320 323 328 330 350 5 20 349 41 183 256 224 243 286 283 272 316 326 290 241 300 250 298 2 16 119 282 272 251 139 70 63 111 176 135 356 355 2 38 120 238 212 263
290 313 318 322 330 332 51 68 114 216 327 273 257 261 251 270 304 318 22 20 10 309 340 352 8 353 341 44 230 270 120 103 77 79 80 146 180 354 360 332 27 22 12 34 5
286 309 317 323 327 26 57 48 315 215 145 301 245 273 276 14 300 286 31 336 322 348 357 45 295 11 359 35 11 2 21 75 108 90 47 79 61 14 320 345 31 40 324 50 36
282 310 322 330 55 315 45 327 328 278 66 285 326 286 334 256 284 263 148 104 327 310 344 26 307 338 354 345 356 19 339 90 117 51 122 359 130 46 355 324 350 21 6 19 31
268 302 322 13 216 74 298 318 295 59 22 283 304 288 307 37 297 312 315 43 329 303 3 291 329 358 21 339 348 4 322 20 120 99 122 17 86 347 26 307 349 347 358 11 22
251 291 350 19 51 340 323 332 37 41 258 323 314 352 1 12 338 301 11 34 227 312 338 294 293 77 74 7 19 320 335 46 44 75 65 76 106 313 104 297 320 323 346 17 22
200 207 155 127 252 302 348 47 35 130 323 294 314 15 7 351 335 19 21 29 28 24 357 337 339 329 17 25 88 30 22 13 9 29 122 85 62 346 294 295 280 287 338 354 28
183 158 270 180 152 70 65 49 96 241 231 332 16 17 30 7 1 356 36 15 33 5 2 10 346 0 349 47 319 351 94 127 198 38 67 354 73 87 187 213 273 321 354 6 20
129 18 324 253 163 98 78 81 209 207 220 165 54 69 328 339 140 71 22 11 337 350 16 345 320 331 329 335 71 317 50 172 104 25 59 343 33 42 293 275 10 12 24 24 5
113 99 262 168 138 73 90 232 217 214 171 91 162 159 181 280 38 82 208 195 288 345 40 7 306 357 305 345 350 45 230 41 18 56 66 16 23 130 56 39 24 19 27 19 3
74 80 244 128 62 52 168 219 230 234 191 153 175 154 221 168 134 116 254 200 198 320 313 19 39 294 53 21 341 349 21 56 114 111 132 124 326 226 105 22 34 28 27 29 20
110 59 261 76 67 156 171 187 304 207 119 130 128 161 181 169 146 172 203 151 77 327 312 342 14 299 240 278 277 262 88 96 103 333 36 80 297 86 44 344 36 36 28 32 37
133 159 324 100 153 229 289 323 284 196 203 176 189 193 193 176 130 199 133 121 111 55 213 310 1 6 347 0 11 32 353 65 92 88 57 103 203 194 24 27 31 51 32 27 29
107 142 312 332 284 153 144 196 199 272 294 231 190 151 164 172 150 166 142 120 112 162 93 29 30 153 192 208 263 12 6 13 65 96 162 178 153 218 33 61 57 32 62 55 43
116 227 189 175 216 209 163 153 142 161 279 294 254 228 179 157 141 165 134 109 67 88 63 76 131 57 334 340 335 331 348 10 56 162 134 162 142 165 42 164 134 61 52 43 25
147 170 142 186 146 147 191 197 162 140 155 219 234 197 204 185 192 178 134 169 163 85 88 49 152 78 319 352 15 318 260 194 307 259 273 326 285 207 195 131 94 90 72 41 17
151 175 127 156 146 122 217 194 187 140 196 170 192 136 196 225 127 86 80 87 108 119 104 72 116 67 268 351 339 351 224 186 213 204 149 178 230 101 61 32 86 110 101 75 14